Other Public Products
Issued by NWS Grand Forks, ND

Home | Current Version | Previous Version | Text Only | Print | Product List | Glossary On
Versions: 1 2 3 4 5 6 7 8 9 10 11 12 13 14 15 16 17 18 19 20 21 22 23 24 25 26 27 28 29 30 31 32 33 34 35 36 37 38 39 40 41 42 43 44 45 46 47 48 49 50
000
FPUS83 KFGF 310210
OPUFGF
PRAIRIE TO PINES WEATHER ROUNDUP
NATIONAL WEATHER SERVICE EASTERN NORTH DAKOTA/GRAND FORKS ND
900 PM CDT SAT AUG 30 2014

 **SATELLITE DATA USED TO AUGMENT SKY COVER AT AUTOMATED STATIONS**
 *****  WEATHER ACROSS EASTERN NORTH DAKOTA  *****

CITY           SKY/WX    TMP DP  RH WIND       PRES   REMARKS
GRAND FORKS    PTCLDY    66  58  75 SE10      29.78F
GRAND FORKS AF PTCLDY    65  57  75 SE8       29.79F
GRAND CITY NWS   N/A     66 N/A N/A SE7         N/A
BUXTON         NOT AVBL
DEVILS LAKE    PTCLDY    64  52  63 SE13      29.76F
FARGO          MOCLDY    66  59  78 SE6       29.80F
WAHPETON ARPT  CLEAR     59  55  88 SE5       29.82S
$$

 *****  WEATHER ACROSS CENTRAL AND WESTERN NORTH DAKOTA  *****

CITY           SKY/WX    TMP DP  RH WIND       PRES   REMARKS
JAMESTOWN      CLEAR     61  57  87 SE10      29.77F
BISMARCK       PTCLDY    66  57  72 E12       29.68F
MINOT          NOT AVBL
MINOT AFB      CLOUDY    67  55  66 SE8       29.68S
GARRISON         N/A     66  58  75 SE8       29.68F
WILLISTON      MOCLDY    62  60  93 NE6       29.68F
DICKINSON      CLOUDY    66  59  78 E7        29.66R
HETTINGER      MOCLDY    68  57  68 E13       29.66R
$$

 *****  OTHER OBSERVATIONS NORTHEAST NORTH DAKOTA  *****

CITY           SKY/WX    TMP DP  RH WIND       PRES   REMARKS
WALHALLA         N/A     57  52  82 SW5       29.79S
LANGDON        FAIR      55  48  76 SE8       29.79F
CAVALIER       FAIR      63  50  63 S3        29.78F
GRAFTON        FAIR      63  50  63 SE6       29.78F
CANDO          FAIR      57  55  94 SE6       29.77S
FORT TOTTEN      N/A     62  53  73 SE5       29.95S
ROLLA          FAIR      57  55  94 S10       29.77S
RUGBY          FAIR      63  55  77 SE8       29.74S
 ***** THE ABOVE OBSERVATIONS ARE NON NWS ARE NOT QUALITY
        CONTROLLED AND MAY MIS-REPORT RAIN FOR SNOW...
$$

 *****  OTHER OBSERVATIONS SOUTHEAST NORTH DAKOTA *****

CITY           SKY/WX    TMP DP  RH WIND       PRES   REMARKS
COOPERSTOWN    NOT AVBL
VALLEY CITY    FAIR      61  61 100 SE9       29.80F
OAKES            N/A     61  61 100 E10       29.79F
GWINNER        CLEAR     61  61 100 E7        29.81F
BUFFALO        NOT AVBL
WYNDMERE       NOT AVBL
 ***** THE ABOVE OBSERVATIONS ARE NON NWS ARE NOT QUALITY
       CONTROLLED AND MAY MIS-REPORT RAIN FOR SNOW...
$$

  *****  WEATHER ACROSS NORTHERN MINNESOTA  *****

CITY           SKY/WX    TMP DP  RH WIND       PRES   REMARKS
FLAG ISLAND    CLEAR     63  52  67 E5        29.83F
WARROAD        CLEAR     63  57  82 E8        29.83F
ROSEAU         CLEAR     61  54  77 E7        29.83S
HALLOCK        CLEAR     63  52  67 SE7       29.79F
THF RVR FALLS  CLEAR     61  55  82 SE7       29.83R
HALSTAD          N/A     62  59  91 SE5         N/A
FOSSTON        CLOUDY    63  55  77 SE7       29.85S
BAUDETTE       CLEAR     59  54  83 CALM      29.84F
WASKISH        CLEAR     59  55  88 CALM      29.86S
CROOKSTON      CLEAR     61  57  88 SE8       29.82S
$$
  *****  WEATHER ACROSS CENTRAL AND WEST MINNESOTA  *****

CITY           SKY/WX    TMP DP  RH WIND       PRES   REMARKS
BEMIDJI        CLOUDY    62  58  86 SE9       29.86S
PARK RAPIDS    CLOUDY    62  61  96 E5        29.86S
WADENA         CLEAR     59  57  94 CALM      29.86R
DETROIT LAKES  MOCLDY    63  59  88 SE7       29.85S
MOORHEAD       MOCLDY    66  64  94 S5        29.82F
FERGUS FALLS   CLEAR     61  59  94 S3        29.84R
ELBOW LAKE     FAIR      60  59  96 SE3       29.84S
MORRIS MN      CLEAR     61  59  94 SE5       29.84S
STAPLES        CLEAR     61  61 100 CALM      29.87R
WHEATON        CLEAR     57  55  94 E7        29.84F
$$
  *****  WEATHER ELSEWHERE ACROSS MINNESOTA  *****

CITY           SKY/WX    TMP DP  RH WIND       PRES   REMARKS
DULUTH         CLOUDY    61  57  87 E8        29.91R
INTRNTL FALLS  CLEAR     56  53  90 SE5       29.87S
ELY            MOCLDY    57  55  94 CALM      29.91S
CLOQUET        CLOUDY    61  57  88 E5        29.91R
BRAINERD       CLOUDY    63  62  97 CALM      29.87S
HIBBING        CLOUDY    63  58  83 E5        29.90S
ALEXANDRIA     CLOUDY    65  61  87 S5        29.87S
SAINT CLOUD    CLOUDY    71  64  78 SE3       29.86R
MINNEAPOLIS    LGT RAIN  70  63  78 SE13      29.87R
$$

  *****  WEATHER ACROSS SOUTH DAKOTA  *****

CITY           SKY/WX    TMP DP  RH WIND       PRES   REMARKS
SIOUX FALLS    CLEAR     67  61  81 S7        29.84F
BROOKINGS      NOT AVBL
WATERTOWN      CLEAR     62  57  83 SE5       29.83S
HURON          CLEAR     65  59  81 SE6       29.79F
SISSETON         N/A     61  60  97 SE6       29.81S
ABERDEEN       CLEAR     60  59  96 SE8       29.78F
MITCHELL       CLEAR     65  61  87 SE9       29.81F
PIERRE         CLEAR     70  62  76 SE23G31   29.66F
MOBRIDGE       CLEAR     66  59  78 SE17      29.65F
RAPID CITY     CLOUDY    77  50  38 S12       29.63F
$$

  *****  SOME WEATHER IN NEARBY STATES *****

CITY           SKY/WX    TMP DP  RH WIND       PRES   REMARKS
GLASGOW MT     MOCLDY    63  57  81 SE9       29.70S
GREAT FALLS MT PTCLDY    64  37  36 NW9       29.76R
CHEYENNE WY    CLOUDY    67  43  41 W12       30.03R
SCOTTSBLUFF NE CLOUDY    77  48  35 W15G24    29.86R
OMAHA NE       CLEAR     73  63  70 SE6       29.87S
DES MOINES IA  CLEAR     74  64  71 CALM      29.88R
DAVENPORT IA   CLEAR     69  66  90 CALM      29.90R
CHICAGO IL     PTCLDY    76  63  64 SW5       29.89R
EAU CLAIRE WI  CLEAR     63  61  93 CALM      29.89R
LA CROSSE WI   PTCLDY    70  64  81 CALM      29.87R
$$

  *****  SOME NATIONAL WEATHER *****

CITY           SKY/WX    TMP DP  RH WIND       PRES   REMARKS
LA GUARDIA NY  CLOUDY    74  65  73 S12       30.16S
RALEIGH NC     PTCLDY    79  71  76 SE6       30.16R
ATLANTA GA     CLOUDY    79  74  84 CALM      30.12R
NEW ORLEANS LA CLOUDY    76  73  91 CALM      30.05F
OKLAHOMA CITY  PTCLDY    82  60  47 SE8       29.89R
ALBUQUERQUE NM MOCLDY    83  43  24 S8        30.03S
SALT LAKE CITY MOCLDY    80  38  22 CALM      29.80F
LOS ANGELES CA PTCLDY    73  65  75 W10       29.75S
BOISE ID       MOCLDY    77  39  25 NW7       29.81F
SEATTLE WA     CLOUDY    62  60  93 SW6       29.92S
$$

*** WEATHER ACROSS MANITOBA...SASKATCHEWAN AND ONTARIO ***
                ***ONTARIO***

CITY           SKY/WX    TMP DP  RH WIND       PRES   REMARKS
GERALDTON      PTCLDY    59  54  82 N5        29.91R
THUNDER BAY    MOCLDY    61  55  82 CALM      29.91R
SIOUX LOOKOUT  PTCLDY    55  50  82 E2        29.91R
TORONTO        MOCLDY    81  66  61 SW14G23   29.90F
BIG TROUT LK   CLEAR     45  43  93 SE3       29.91R
PICKLE LAKE    PTCLDY    57  45  62 SW5       29.92S
DRYDEN         CLEAR     59  52  77 E3        29.89S
KENORA         PTCLDY    59  52  77 SE3       29.87S
$$
                *** MANITOBA***

CITY           SKY/WX    TMP DP  RH WIND       PRES   REMARKS
BRANDON        CLOUDY    61  50  67 S7        29.75S
DAUPHIN        LGT RAIN  59  55  88 SE3       29.72F
ISLAND LAKE    PTCLDY    57  48  72 E6        29.84S
PILOT MOUND    NOT AVBL
THE PAS        CLOUDY    57  55  94 SE15G22   29.63
THOMPSON       CLOUDY    59  52  77 SE5       29.74F
WINNIPEG       MOCLDY    61  50  67 SE9       29.79F
LYNN LAKE      LGT RAIN  54  50  87 MISG      29.65F
CHURCHILL      PTCLDY    52  45  76 SE8       29.82R
GILLAM         MOCLDY    50  48  93 SE5       29.81F
$$
                ***SASKATCHEWAN***

CITY           SKY/WX    TMP DP  RH WIND       PRES   REMARKS
ESTEVAN        MOCLDY    61  61 100 E6        29.69F
KINDERSLEY     PTCLDY    61  43  51 NW6       29.68S
LLOYDMINSTER   MOCLDY    55  46  71 W6        29.64S
PRINCE ALBERT  PTCLDY    61  55  82 NW3       29.60R
REGINA         MOCLDY    63 N/A N/A SE6       29.67R
YORKTON        LGT RAIN  59  57  94 S10       29.65F


USA.gov is the U.S. government's official web portal to all federal, state and local government web resources and services.